Tracking 19489 objects as of 23-Jan-2019
HD Live streaming from Space Station
objects crossing your sky now

ARIANE 40 R/B

Track ARIANE 40 R/B now!
10-day predictions
ARIANE 40 R/B is classified as:


NORAD ID: 21610
Int'l Code: 1991-050F
Perigee: 760.6 km
Apogee: 765.0 km
Inclination: 98.5 °
Period: 99.9 minutes
Semi major axis: 7133 km
RCS: 17.461 m2 (large)
Launch date: July 17, 1991
Source: France (FR)
Launch site: FRENCH GUIANA (FRGUI)

Note: This is a ROCKET BODY
aabbcc
Your satellite tracking list
Your tracking list is empty




NASA's NSSDC Master Catalog

Two Line Element Set (TLE):
1 21610U 91050F   19022.83981490 -.00000012  00000-0  10082-4 0  9990
2 21610  98.5286  90.3753 0003133  15.1835 108.8036 14.40861345444307
Source of the keplerian elements: AFSPC